INSAT-3DR

Last updated on Wed Nov 05 2025 00:02:22 GMT+0000 (Coordinated Universal Time)

1 41752U 16054A 25308.55052038 -.00000065 00000+0 00000+0 0 9991 2 41752 0.0829 85.4502 0013691 180.3580 50.4476 1.00271177 33568
UTC large
Height (km)
Speed (km/s)
/
Latitude / Longitude
Inclination (degrees)
Orbital Period (minutes)
Azimuth
Elevation
Range (km)
Doppler Factor

Next 0 passes for location: London (51.5072 / 0.1276)

Sorry there are no passes over London.